sat.trackr.live / text

‹ back to catalog

INMARSAT 4-F3

NORAD 33278 · 2008-039A

PAYLOAD ACTIVE UNKNOWN

§ Identity

Operator
Country
IM
Launch date
2008-08-18
Launch site
TYMSC
Launch vehicle
Mass (kg)
RCS (m²)
12.62

Purposes: comms

External: N2YO · Heavens-Above · Gunter

§ Orbital elements

Epoch: 2026-09-20T04:00:00.237024Z

Period
1,436.10 min
Inclination
4.3855°
Eccentricity
0.0003070
Mean motion
1.00271474 rev/d
Perigee alt
35,773.7 km
Apogee alt
35,799.6 km
Semi-major
42,164.8 km
B*
0.0000e+0
RAAN
31.7684°
Arg perigee
171.1774°
Mean anomaly
118.1487°
Rev number
4,749

§ Raw data

INMARSAT 4-F31 33278U 08039A   26263.16666941 -.00000142  00000+0  00000+0 0  99972 33278   4.3855  31.7684 0003070 171.1774 118.1487  1.00271474 47497

JSON: /api/v1/satellites/33278 · /tle

For live sub-satellite position, see the globe view (requires WebGL).

§ Visibility from observer

Set your observer location to see the next 7 days of passes ≥ 10°. The values pass through the URL so the page stays shareable.

No JS? Fill the form by hand. The geolocation button needs JavaScript.